Stündliche Wetter Holoskove

Heute, 21 Juni, Montag

Zeit Temperatur Niederschläge Wind Luftdruck Luftfeuchtigkeit
00:00 +20°C° 0 mm 3 m/S 748 mmHg 84%
01:00 +19°C° 0 mm 2 m/S 748 mmHg 87%
02:00 +19°C° 0 mm 2 m/S 748 mmHg 91%
03:00 +19°C° 0 mm 2 m/S 748 mmHg 92%
04:00 +19°C° 0 mm 2 m/S 748 mmHg 93%
05:00 +20°C° 0 mm 1 m/S 748 mmHg 93%
06:00 +22°C° 0 mm 1 m/S 748 mmHg 87%
07:00 +23°C° 0 mm 2 m/S 748 mmHg 81%
08:00 +25°C° 0 mm 2 m/S 748 mmHg 74%
09:00 +26°C° 0 mm 2 m/S 748 mmHg 70%
10:00 +27°C° 0 mm 2 m/S 748 mmHg 66%
11:00 +28°C° 0 mm 2 m/S 749 mmHg 62%
12:00 +29°C° 0 mm 2 m/S 748 mmHg 59%
13:00 +30°C° 0 mm 2 m/S 748 mmHg 56%
14:00 +30°C° 0 mm 1 m/S 748 mmHg 53%
15:00 +30°C° 0 mm 1 m/S 748 mmHg 53%
16:00 +31°C° 0 mm 1 m/S 748 mmHg 52%
17:00 +31°C° 0 mm 1 m/S 748 mmHg 52%
18:00 +29°C° 0 mm 1 m/S 749 mmHg 57%
19:00 +28°C° 0 mm 1 m/S 749 mmHg 63%
20:00 +26°C° 0 mm 2 m/S 749 mmHg 68%
21:00 +25°C° 0 mm 2 m/S 749 mmHg 70%
22:00 +25°C° 0 mm 2 m/S 749 mmHg 72%
23:00 +24°C° 0 mm 2 m/S 748 mmHg 73%

Morgen, 22 Juni, Dienstag

Zeit Temperatur Niederschläge Wind Luftdruck Luftfeuchtigkeit
00:00 +24°C° 0.1 mm 2 m/S 748 mmHg 76%
01:00 +23°C° 0.1 mm 2 m/S 748 mmHg 79%
02:00 +23°C° 0.1 mm 2 m/S 748 mmHg 82%
03:00 +21°C° 0.6 mm 2 m/S 748 mmHg 85%
04:00 +21°C° 0.6 mm 2 m/S 748 mmHg 87%
05:00 +21°C° 0.6 mm 2 m/S 748 mmHg 90%
06:00 +22°C° 0.3 mm 3 m/S 748 mmHg 83%
07:00 +25°C° 0.3 mm 3 m/S 748 mmHg 77%
08:00 +26°C° 0.3 mm 4 m/S 748 mmHg 71%
09:00 +27°C° 0 mm 4 m/S 748 mmHg 66%
10:00 +29°C° 0 mm 4 m/S 748 mmHg 61%
11:00 +30°C° 0 mm 4 m/S 748 mmHg 57%
12:00 +30°C° 0 mm 4 m/S 748 mmHg 56%
13:00 +31°C° 0 mm 3 m/S 748 mmHg 55%
14:00 +33°C° 0 mm 3 m/S 748 mmHg 54%
15:00 +33°C° 0 mm 3 m/S 748 mmHg 55%
16:00 +33°C° 0 mm 3 m/S 748 mmHg 57%
17:00 +32°C° 0 mm 2 m/S 748 mmHg 58%
18:00 +30°C° 0.4 mm 3 m/S 748 mmHg 64%
19:00 +28°C° 0.4 mm 3 m/S 749 mmHg 71%
20:00 +27°C° 0.4 mm 3 m/S 749 mmHg 77%
21:00 +26°C° 1.4 mm 3 m/S 749 mmHg 80%
22:00 +25°C° 1.4 mm 3 m/S 749 mmHg 83%
23:00 +24°C° 1.4 mm 2 m/S 749 mmHg 86%

übermorgen, 23 Juni, Mittwoch

Zeit Temperatur Niederschläge Wind Luftdruck Luftfeuchtigkeit
00:00 +23°C° 0.1 mm 2 m/S 749 mmHg 86%
01:00 +21°C° 0.1 mm 3 m/S 749 mmHg 85%
02:00 +21°C° 0.1 mm 3 m/S 749 mmHg 85%
03:00 +20°C° 0 mm 3 m/S 749 mmHg 85%
04:00 +20°C° 0 mm 3 m/S 750 mmHg 85%
05:00 +20°C° 0 mm 3 m/S 750 mmHg 85%
06:00 +22°C° 0 mm 3 m/S 750 mmHg 80%
07:00 +25°C° 0 mm 3 m/S 750 mmHg 75%
08:00 +27°C° 0 mm 3 m/S 750 mmHg 70%
09:00 +28°C° 0 mm 3 m/S 750 mmHg 66%
10:00 +29°C° 0 mm 3 m/S 750 mmHg 62%
11:00 +31°C° 0 mm 3 m/S 750 mmHg 58%
12:00 +31°C° 0 mm 3 m/S 750 mmHg 57%
13:00 +31°C° 0 mm 3 m/S 750 mmHg 57%
14:00 +31°C° 0 mm 3 m/S 750 mmHg 57%
15:00 +31°C° 0 mm 3 m/S 750 mmHg 60%
16:00 +30°C° 0 mm 3 m/S 750 mmHg 64%
17:00 +29°C° 0 mm 3 m/S 750 mmHg 68%
18:00 +28°C° 0.1 mm 3 m/S 750 mmHg 74%
19:00 +27°C° 0.1 mm 3 m/S 750 mmHg 79%
20:00 +25°C° 0.1 mm 3 m/S 750 mmHg 85%
21:00 +25°C° 0.4 mm 2 m/S 750 mmHg 86%
22:00 +24°C° 0.4 mm 2 m/S 750 mmHg 88%
23:00 +24°C° 0.4 mm 2 m/S 750 mmHg 89%

24 Juni, Donnerstag

Zeit Temperatur Niederschläge Wind Luftdruck Luftfeuchtigkeit
00:00 +23°C° 0.4 mm 2 m/S 751 mmHg 88%
01:00 +23°C° 0.4 mm 2 m/S 751 mmHg 86%
02:00 +23°C° 0.4 mm 2 m/S 751 mmHg 85%
03:00 +21°C° 0 mm 2 m/S 751 mmHg 84%
04:00 +21°C° 0 mm 2 m/S 751 mmHg 84%
05:00 +21°C° 0 mm 2 m/S 751 mmHg 83%
06:00 +24°C° 0 mm 2 m/S 751 mmHg 78%
07:00 +26°C° 0 mm 2 m/S 751 mmHg 74%
08:00 +27°C° 0 mm 2 m/S 751 mmHg 69%
09:00 +29°C° 0 mm 2 m/S 751 mmHg 66%
10:00 +30°C° 0 mm 2 m/S 751 mmHg 62%
11:00 +31°C° 0 mm 2 m/S 751 mmHg 59%
12:00 +32°C° 0 mm 2 m/S 751 mmHg 56%
13:00 +34°C° 0 mm 3 m/S 751 mmHg 54%
14:00 +34°C° 0 mm 3 m/S 751 mmHg 51%
15:00 +34°C° 0 mm 3 m/S 751 mmHg 55%
16:00 +33°C° 0 mm 3 m/S 751 mmHg 58%
17:00 +33°C° 0 mm 4 m/S 751 mmHg 61%
18:00 +30°C° 0 mm 4 m/S 751 mmHg 68%
19:00 +29°C° 0 mm 3 m/S 750 mmHg 75%
20:00 +27°C° 0 mm 3 m/S 750 mmHg 82%
21:00 +26°C° 0 mm 3 m/S 750 mmHg 84%
22:00 +25°C° 0 mm 3 m/S 750 mmHg 86%
23:00 +25°C° 0 mm 3 m/S 750 mmHg 88%

25 Juni, Freitag

Zeit Temperatur Niederschläge Wind Luftdruck Luftfeuchtigkeit
00:00 +24°C° 0.1 mm 3 m/S 750 mmHg 88%
01:00 +24°C° 0.1 mm 3 m/S 750 mmHg 89%
02:00 +22°C° 0.1 mm 3 m/S 750 mmHg 90%
03:00 +22°C° 0 mm 3 m/S 750 mmHg 90%
04:00 +22°C° 0 mm 3 m/S 750 mmHg 91%
05:00 +22°C° 0 mm 3 m/S 750 mmHg 91%
06:00 +24°C° 0 mm 3 m/S 750 mmHg 85%
07:00 +26°C° 0 mm 3 m/S 750 mmHg 79%
08:00 +27°C° 0 mm 3 m/S 750 mmHg 73%
09:00 +28°C° 0.2 mm 4 m/S 750 mmHg 68%
10:00 +29°C° 0.2 mm 4 m/S 750 mmHg 64%
11:00 +30°C° 0.2 mm 4 m/S 750 mmHg 59%
12:00 +30°C° 0.5 mm 4 m/S 750 mmHg 59%
13:00 +30°C° 0.5 mm 4 m/S 750 mmHg 59%
14:00 +30°C° 0.5 mm 4 m/S 750 mmHg 60%
15:00 +30°C° 0.2 mm 3 m/S 750 mmHg 62%
16:00 +29°C° 0.2 mm 3 m/S 750 mmHg 65%
17:00 +29°C° 0.2 mm 2 m/S 749 mmHg 67%
18:00 +28°C° 0.2 mm 2 m/S 749 mmHg 71%
19:00 +26°C° 0.2 mm 2 m/S 749 mmHg 75%
20:00 +25°C° 0.2 mm 2 m/S 750 mmHg 79%
21:00 +24°C° 0.5 mm 2 m/S 749 mmHg 79%
22:00 +24°C° 0.5 mm 1 m/S 749 mmHg 79%
23:00 +23°C° 0.5 mm 1 m/S 749 mmHg 78%

26 Juni, Samstag

Zeit Temperatur Niederschläge Wind Luftdruck Luftfeuchtigkeit
00:00 +23°C° 0.1 mm 2 m/S 749 mmHg 82%
01:00 +23°C° 0.1 mm 2 m/S 749 mmHg 85%
02:00 +23°C° 0.1 mm 2 m/S 749 mmHg 88%
03:00 +23°C° 0 mm 2 m/S 749 mmHg 89%
04:00 +23°C° 0 mm 2 m/S 749 mmHg 90%
05:00 +23°C° 0 mm 2 m/S 749 mmHg 91%
06:00 +25°C° 0 mm 2 m/S 749 mmHg 85%
07:00 +26°C° 0 mm 2 m/S 749 mmHg 79%
08:00 +28°C° 0 mm 2 m/S 749 mmHg 74%
09:00 +29°C° 0.1 mm 2 m/S 749 mmHg 67%
10:00 +31°C° 0.1 mm 2 m/S 749 mmHg 60%
11:00 +32°C° 0.1 mm 1 m/S 749 mmHg 54%
12:00 +32°C° 0.1 mm 2 m/S 749 mmHg 51%
13:00 +34°C° 0.1 mm 2 m/S 748 mmHg 49%
14:00 +34°C° 0.1 mm 2 m/S 748 mmHg 47%
15:00 +34°C° 0 mm 2 m/S 748 mmHg 48%
16:00 +34°C° 0 mm 2 m/S 747 mmHg 48%
17:00 +34°C° 0 mm 2 m/S 747 mmHg 49%
18:00 +31°C° 0 mm 2 m/S 747 mmHg 55%
19:00 +29°C° 0 mm 2 m/S 747 mmHg 61%
20:00 +28°C° 0 mm 2 m/S 747 mmHg 67%
21:00 +27°C° 0.5 mm 2 m/S 747 mmHg 71%
22:00 +26°C° 0.5 mm 2 m/S 747 mmHg 75%
23:00 +24°C° 0.5 mm 2 m/S 747 mmHg 79%
Mehr zeigen

Wir brauchen deine Erlaubnis

Meteoprog und unser Service Anbieter werden persönliche Daten aufbewahren, so wie Cookies, Geräte Bezeichnung oder ähnliche Technologien von deinem Gerät und Prozess, so wie Persönliche Daten Inhalte und Werbungen, genauso wie social Media und den Verkehr zu analysieren.

  • Aufbewahrung und/oder Zugang zu deiner Geräte Informationen.

    Cookies, Geräte Bezeichnung oder andere Informationen, können aufbewahrt oder Zugang zu deinem Gerät erhalten, für den Grund, der oben angegeben wird.

  • Personalisierte Werbung und Inhalte, Messungen, Einblick in das Publikum und Produkt Entwicklung.

    Werbungen und Inhalte können personalisiert werden, basierend auf ein Profil. Mehr Daten können besser personalisierte Werbungen und Inhalte hinzufügen. Werbung und Inhalte können gezeigt und gemessen werden. Einblicke über das Publikum, welche die Werbung gesehen haben und den Inhalt, können abgeleitet werden. So wie Daten können genutzt werden, um es zu verbessern oder die Benutzer Erfahrung zu verbessern das System und die Software.

Wenn du “Ich stimme zu” klickst, erlaubst du uns, die Cookies zu benutzen die Geräte Bezeichnung, den Web oder ähnliche Technologien zu benutzen. Deine Settings, können in deinem Gerät bei deinem Browser geändert werden.

Für den bestimmten Zweck, berechtigten Interessen beruhen darauf, mehr als auf den Inhalt. Du kannst mehr darüber in unseren Privaten und Cookie Politik lesen.